Time,TemperatureF,DewpointF,PressureIn,WindDirection,WindDirectionDegrees,WindSpeedMPH,WindSpeedGustMPH,Humidity,HourlyPrecipIn,Conditions,Clouds,dailyrainin,SolarRadiationWatts/m^2,SoftwareType,DateUTC
2013-01-22 00:03:00,51.7,33.6,30.09,East,88,0.0,0.0,50,0.00,CLR,,0.00,0.0,WeatherDisplay:10.37,2013-01-22 08:03:00,
2013-01-22 00:08:00,51.6,34.0,30.09,East,87,0.0,0.0,51,0.00,CLR,,0.00,0.0,WeatherDisplay:10.37,2013-01-22 08:08:00,
2013-01-22 00:13:00,51.5,33.5,30.09,East,87,1.2,2.3,50,0.00,CLR,,0.00,0.0,WeatherDisplay:10.37,2013-01-22 08:13:00,
2013-01-22 00:18:00,51.4,33.4,30.08,East,95,0.7,1.1,50,0.00,CLR,,0.00,0.0,WeatherDisplay:10.37,2013-01-22 08:18:00,
2013-01-22 00:23:00,51.7,33.6,30.08,East,96,0.5,1.1,50,0.00,CLR,,0.00,0.0,WeatherDisplay:10.37,2013-01-22 08:23:00,
2013-01-22 00:28:00,51.8,33.7,30.08,East,96,1.5,2.3,50,0.00,CLR,,0.00,0.0,WeatherDisplay:10.37,2013-01-22 08:28:00,
2013-01-22 00:33:00,51.7,34.1,30.08,East,96,0.7,1.1,51,0.00,CLR,,0.00,0.0,WeatherDisplay:10.37,2013-01-22 08:33:00,
2013-01-22 00:38:00,51.6,34.0,30.08,East,96,2.4,3.5,51,0.00,CLR,,0.00,0.0,WeatherDisplay:10.37,2013-01-22 08:38:00,
2013-01-22 00:43:00,51.5,34.0,30.08,NE,40,4.1,4.6,51,0.00,CLR,,0.00,0.0,WeatherDisplay:10.37,2013-01-22 08:43:00,
2013-01-22 00:48:00,51.2,36.5,30.08,NE,39,2.7,3.5,57,0.00,CLR,,0.00,0.0,WeatherDisplay:10.37,2013-01-22 08:48:00,
2013-01-22 00:53:00,50.8,37.0,30.08,NE,40,2.3,3.5,59,0.00,CLR,,0.00,0.0,WeatherDisplay:10.37,2013-01-22 08:53:00,
2013-01-22 00:58:00,50.4,36.2,30.08,NE,40,3.1,3.5,58,0.00,CLR,,0.00,0.0,WeatherDisplay:10.37,2013-01-22 08:58:00,
2013-01-22 01:03:00,49.9,35.7,30.08,NE,40,3.2,3.5,58,0.00,CLR,,0.00,0.0,WeatherDisplay:10.37,2013-01-22 09:03:00,
2013-01-22 01:08:00,49.6,35.8,30.08,NE,40,0.0,0.0,59,0.00,CLR,,0.00,0.0,WeatherDisplay:10.37,2013-01-22 09:08:00,
2013-01-22 01:13:00,49.1,35.8,30.08,NE,39,0.0,0.0,60,0.00,CLR,,0.00,0.0,WeatherDisplay:10.37,2013-01-22 09:13:00,
2013-01-22 01:18:00,48.7,35.4,30.08,NE,39,0.0,0.0,60,0.00,CLR,,0.00,0.0,WeatherDisplay:10.37,2013-01-22 09:18:00,
2013-01-22 01:23:00,48.3,34.6,30.08,NE,40,0.7,2.3,59,0.00,CLR,,0.00,0.0,WeatherDisplay:10.37,2013-01-22 09:23:00,
2013-01-22 01:28:00,47.9,33.4,30.08,North,355,1.9,2.3,57,0.00,CLR,,0.00,0.0,WeatherDisplay:10.37,2013-01-22 09:28:00,
2013-01-22 01:33:00,47.7,33.6,30.08,North,351,1.3,2.3,58,0.00,CLR,,0.00,0.0,WeatherDisplay:10.37,2013-01-22 09:33:00,
2013-01-22 01:38:00,47.4,33.8,30.08,North,351,1.5,2.3,59,0.00,CLR,,0.00,0.0,WeatherDisplay:10.37,2013-01-22 09:38:00,
2013-01-22 01:43:00,47.2,34.8,30.08,North,351,1.3,2.3,62,0.00,CLR,,0.00,0.0,WeatherDisplay:10.37,2013-01-22 09:43:00,
2013-01-22 01:48:00,47.0,35.0,30.08,North,351,0.0,0.0,63,0.00,CLR,,0.00,0.0,WeatherDisplay:10.37,2013-01-22 09:48:00,
2013-01-22 01:53:00,46.8,35.6,30.08,North,350,0.0,0.0,65,0.00,CLR,,0.00,0.0,WeatherDisplay:10.37,2013-01-22 09:53:00,
2013-01-22 01:58:00,46.7,35.2,30.08,North,351,0.5,1.1,64,0.00,CLR,,0.00,0.0,WeatherDisplay:10.37,2013-01-22 09:58:00,
2013-01-22 02:03:00,46.6,35.1,30.08,NNW,348,1.4,3.5,64,0.00,CLR,,0.00,0.0,WeatherDisplay:10.37,2013-01-22 10:03:00,
2013-01-22 02:08:00,46.5,34.6,30.08,North,349,2.1,3.5,63,0.00,CLR,,0.00,0.0,WeatherDisplay:10.37,2013-01-22 10:08:00,
2013-01-22 02:13:00,46.4,34.5,30.08,NNW,345,2.1,3.5,63,0.00,CLR,,0.00,0.0,WeatherDisplay:10.37,2013-01-22 10:13:00,
2013-01-22 02:18:00,46.4,34.9,30.08,NNW,334,1.3,3.0,64,0.00,CLR,,0.00,0.0,WeatherDisplay:10.37,2013-01-22 10:18:00,
2013-01-22 02:23:00,46.5,36.1,30.08,WNW,287,3.3,3.5,67,0.00,CLR,,0.00,0.0,WeatherDisplay:10.37,2013-01-22 10:23:00,
2013-01-22 02:28:00,46.7,36.3,30.08,West,270,3.2,3.5,67,0.00,CLR,,0.00,0.0,WeatherDisplay:10.37,2013-01-22 10:28:00,
2013-01-22 02:33:00,47.0,35.0,30.08,WSW,253,3.5,4.6,63,0.00,CLR,,0.00,0.0,WeatherDisplay:10.37,2013-01-22 10:33:00,
2013-01-22 02:38:00,47.1,34.7,30.08,WSW,253,4.3,5.0,62,0.00,CLR,,0.00,0.0,WeatherDisplay:10.37,2013-01-22 10:38:00,
2013-01-22 02:43:00,47.2,35.2,30.08,WNW,284,3.3,3.5,63,0.00,CLR,,0.00,0.0,WeatherDisplay:10.37,2013-01-22 10:43:00,
2013-01-22 02:48:00,47.5,35.1,30.08,WNW,284,3.5,4.0,62,0.00,CLR,,0.00,0.0,WeatherDisplay:10.37,2013-01-22 10:48:00,
2013-01-22 02:53:00,47.6,35.2,30.08,WNW,285,1.6,3.5,62,0.00,CLR,,0.00,0.0,WeatherDisplay:10.37,2013-01-22 10:53:00,
2013-01-22 02:58:00,47.7,35.3,30.07,WNW,284,1.9,3.5,62,0.00,CLR,,0.00,0.0,WeatherDisplay:10.37,2013-01-22 10:58:00,
2013-01-22 03:03:00,47.8,35.4,30.07,WNW,285,1.8,2.3,62,0.00,CLR,,0.00,0.0,WeatherDisplay:10.37,2013-01-22 11:03:00,
2013-01-22 03:08:00,47.7,35.3,30.07,WNW,285,1.6,2.3,62,0.00,CLR,,0.00,0.0,WeatherDisplay:10.37,2013-01-22 11:08:00,
2013-01-22 03:13:00,47.6,35.2,30.07,WNW,285,2.9,3.5,62,0.00,CLR,,0.00,0.0,WeatherDisplay:10.37,2013-01-22 11:13:00,
2013-01-22 03:18:00,47.7,35.3,30.07,West,270,3.7,4.0,62,0.00,CLR,,0.00,0.0,WeatherDisplay:10.37,2013-01-22 11:18:00,
2013-01-22 03:23:00,47.8,35.4,30.06,West,272,3.7,4.6,62,0.00,CLR,,0.00,0.0,WeatherDisplay:10.37,2013-01-22 11:23:00,
2013-01-22 03:28:00,48.0,35.2,30.06,West,273,2.9,3.5,61,0.00,CLR,,0.00,0.0,WeatherDisplay:10.37,2013-01-22 11:28:00,
2013-01-22 03:33:00,48.1,35.3,30.06,West,274,2.8,3.5,61,0.00,CLR,,0.00,0.0,WeatherDisplay:10.37,2013-01-22 11:33:00,
2013-01-22 03:38:00,48.1,34.9,30.06,WNW,291,3.3,3.5,60,0.00,CLR,,0.00,0.0,WeatherDisplay:10.37,2013-01-22 11:38:00,
2013-01-22 03:43:00,48.1,34.9,30.06,WNW,293,1.9,3.5,60,0.00,CLR,,0.00,0.0,WeatherDisplay:10.37,2013-01-22 11:43:00,
2013-01-22 03:48:00,47.9,34.7,30.06,WNW,292,3.4,4.0,60,0.00,CLR,,0.00,0.0,WeatherDisplay:10.37,2013-01-22 11:48:00,
2013-01-22 03:53:00,47.7,34.9,30.06,West,274,3.4,3.5,61,0.00,CLR,,0.00,0.0,WeatherDisplay:10.37,2013-01-22 11:53:00,
2013-01-22 03:58:00,47.6,34.4,30.06,West,264,3.4,4.0,60,0.00,CLR,,0.00,0.0,WeatherDisplay:10.37,2013-01-22 11:58:00,
2013-01-22 04:03:00,47.4,33.8,30.06,West,270,4.5,4.6,59,0.00,CLR,,0.00,0.0,WeatherDisplay:10.37,2013-01-22 12:03:00,
2013-01-22 04:08:00,47.5,33.4,30.06,West,271,3.7,4.6,58,0.00,CLR,,0.00,0.0,WeatherDisplay:10.37,2013-01-22 12:08:00,
2013-01-22 04:13:00,47.7,33.6,30.06,WSW,241,4.3,6.9,58,0.00,CLR,,0.00,0.0,WeatherDisplay:10.37,2013-01-22 12:13:00,
2013-01-22 04:18:00,47.8,33.7,30.06,West,260,5.1,5.1,58,0.00,CLR,,0.00,0.0,WeatherDisplay:10.37,2013-01-22 12:18:00,
2013-01-22 04:23:00,47.8,33.7,30.06,West,259,3.3,5.0,58,0.00,CLR,,0.00,0.0,WeatherDisplay:10.37,2013-01-22 12:23:00,
2013-01-22 04:28:00,47.8,33.7,30.06,West,259,2.2,3.5,58,0.00,CLR,,0.00,0.0,WeatherDisplay:10.37,2013-01-22 12:28:00,
2013-01-22 04:33:00,47.6,33.5,30.06,WNW,284,4.3,5.0,58,0.00,CLR,,0.00,0.0,WeatherDisplay:10.37,2013-01-22 12:33:00,
2013-01-22 04:38:00,47.5,33.9,30.06,West,259,7.3,9.2,59,0.00,CLR,,0.00,0.0,WeatherDisplay:10.37,2013-01-22 12:38:00,
2013-01-22 04:43:00,47.5,34.3,30.06,West,259,7.1,9.2,60,0.00,CLR,,0.00,0.0,WeatherDisplay:10.37,2013-01-22 12:43:00,
2013-01-22 04:48:00,47.4,33.8,30.06,WSW,258,6.1,7.0,59,0.00,CLR,,0.00,0.0,WeatherDisplay:10.37,2013-01-22 12:48:00,
2013-01-22 04:53:00,47.4,34.2,30.06,West,266,5.9,8.1,60,0.00,CLR,,0.00,0.0,WeatherDisplay:10.37,2013-01-22 12:53:00,
2013-01-22 04:58:00,47.3,34.1,30.06,WSW,257,6.6,9.2,60,0.00,CLR,,0.00,0.0,WeatherDisplay:10.37,2013-01-22 12:58:00,
2013-01-22 05:03:00,47.4,34.6,30.06,WSW,250,3.8,6.9,61,0.00,CLR,,0.00,0.0,WeatherDisplay:10.37,2013-01-22 13:03:00,
2013-01-22 05:09:00,47.4,33.8,30.06,WSW,249,5.1,6.9,59,0.00,CLR,,0.00,0.0,WeatherDisplay:10.37,2013-01-22 13:09:00,
2013-01-22 05:14:00,47.2,34.0,30.06,WSW,241,3.7,5.8,60,0.00,CLR,,0.00,0.0,WeatherDisplay:10.37,2013-01-22 13:14:00,
2013-01-22 05:19:00,47.0,34.2,30.06,SW,226,2.8,5.8,61,0.00,CLR,,0.00,0.0,WeatherDisplay:10.37,2013-01-22 13:19:00,
2013-01-22 05:24:00,46.8,34.0,30.06,WSW,255,5.0,6.9,61,0.00,CLR,,0.00,0.0,WeatherDisplay:10.37,2013-01-22 13:24:00,
2013-01-22 05:29:00,46.8,34.0,30.06,WSW,249,5.4,7.0,61,0.00,CLR,,0.00,0.0,WeatherDisplay:10.37,2013-01-22 13:29:00,
2013-01-22 05:34:00,46.8,34.5,30.07,WSW,253,4.0,4.6,62,0.00,CLR,,0.00,0.0,WeatherDisplay:10.37,2013-01-22 13:34:00,
2013-01-22 05:39:00,46.9,34.1,30.07,West,265,3.4,4.6,61,0.00,CLR,,0.00,0.0,WeatherDisplay:10.37,2013-01-22 13:39:00,
2013-01-22 05:44:00,46.9,33.7,30.07,WSW,246,4.1,5.8,60,0.00,CLR,,0.00,0.0,WeatherDisplay:10.37,2013-01-22 13:44:00,
2013-01-22 05:49:00,46.8,33.6,30.06,WSW,253,4.6,5.0,60,0.00,CLR,,0.00,0.0,WeatherDisplay:10.37,2013-01-22 13:49:00,
2013-01-22 05:54:00,46.8,34.5,30.06,West,259,4.2,5.8,62,0.00,CLR,,0.00,0.0,WeatherDisplay:10.37,2013-01-22 13:54:00,
2013-01-22 05:59:00,46.8,34.9,30.06,West,261,4.5,5.0,63,0.00,CLR,,0.00,0.0,WeatherDisplay:10.37,2013-01-22 13:59:00,
2013-01-22 06:04:00,46.8,34.9,30.07,West,260,3.9,5.0,63,0.00,CLR,,0.00,0.0,WeatherDisplay:10.37,2013-01-22 14:04:00,
2013-01-22 06:09:00,46.9,35.0,30.07,West,261,4.7,5.0,63,0.00,CLR,,0.00,0.0,WeatherDisplay:10.37,2013-01-22 14:09:00,
2013-01-22 06:14:00,46.9,35.4,30.07,West,259,2.9,4.6,64,0.00,CLR,,0.00,0.0,WeatherDisplay:10.37,2013-01-22 14:14:00,
2013-01-22 06:19:00,46.8,35.6,30.07,West,262,5.3,6.0,65,0.00,CLR,,0.00,0.0,WeatherDisplay:10.37,2013-01-22 14:19:00,
2013-01-22 06:24:00,46.8,35.6,30.07,WSW,237,4.3,5.8,65,0.00,CLR,,0.00,0.0,WeatherDisplay:10.37,2013-01-22 14:24:00,
2013-01-22 06:29:00,46.6,35.5,30.07,West,265,3.4,4.6,65,0.00,CLR,,0.00,0.0,WeatherDisplay:10.37,2013-01-22 14:29:00,
2013-01-22 06:34:00,46.5,35.7,30.07,WSW,241,4.7,5.8,66,0.00,CLR,,0.00,0.0,WeatherDisplay:10.37,2013-01-22 14:34:00,
2013-01-22 06:39:00,46.4,35.3,30.07,WSW,251,4.8,5.8,65,0.00,CLR,,0.00,0.0,WeatherDisplay:10.37,2013-01-22 14:39:00,
2013-01-22 06:44:00,46.3,35.2,30.07,WSW,256,4.4,5.8,65,0.00,CLR,,0.00,0.0,WeatherDisplay:10.37,2013-01-22 14:44:00,
2013-01-22 06:49:00,46.3,35.6,30.07,West,259,5.5,6.9,66,0.00,CLR,,0.00,0.0,WeatherDisplay:10.37,2013-01-22 14:49:00,
2013-01-22 06:54:00,46.2,35.5,30.07,WSW,248,3.7,7.0,66,0.00,CLR,,0.00,0.0,WeatherDisplay:10.37,2013-01-22 14:54:00,
2013-01-22 06:59:00,46.1,35.0,30.07,SW,235,5.0,7.0,65,0.00,CLR,,0.00,0.0,WeatherDisplay:10.37,2013-01-22 14:59:00,
2013-01-22 07:04:00,46.1,35.0,30.07,SW,224,6.9,10.4,65,0.00,CLR,,0.00,0.0,WeatherDisplay:10.37,2013-01-22 15:04:00,
2013-01-22 07:09:00,46.1,35.4,30.07,SW,221,7.3,9.2,66,0.00,CLR,,0.00,5.0,WeatherDisplay:10.37,2013-01-22 15:09:00,
2013-01-22 07:14:00,46.1,35.4,30.07,WSW,238,5.5,6.9,66,0.00,CLR,,0.00,5.0,WeatherDisplay:10.37,2013-01-22 15:14:00,
2013-01-22 07:19:00,46.0,34.9,30.07,SW,236,5.0,6.9,65,0.00,CLR,,0.00,5.0,WeatherDisplay:10.37,2013-01-22 15:19:00,
2013-01-22 07:24:00,46.0,34.5,30.07,WSW,239,4.6,5.8,64,0.00,CLR,,0.00,7.0,WeatherDisplay:10.37,2013-01-22 15:24:00,
2013-01-22 07:29:00,46.0,34.5,30.07,SW,229,4.7,8.1,64,0.00,CLR,,0.00,11.0,WeatherDisplay:10.37,2013-01-22 15:29:00,
2013-01-22 07:34:00,46.0,33.7,30.07,SW,226,5.3,8.1,62,0.00,CLR,,0.00,16.0,WeatherDisplay:10.37,2013-01-22 15:34:00,
2013-01-22 07:39:00,46.1,33.4,30.07,WSW,245,7.4,9.2,61,0.00,CLR,,0.00,21.0,WeatherDisplay:10.37,2013-01-22 15:39:00,
2013-01-22 07:44:00,46.4,33.7,30.07,SW,232,5.9,7.0,61,0.00,CLR,,0.00,26.0,WeatherDisplay:10.37,2013-01-22 15:44:00,
2013-01-22 07:49:00,46.7,34.0,30.07,SW,228,4.0,6.9,61,0.00,CLR,,0.00,32.0,WeatherDisplay:10.37,2013-01-22 15:49:00,
2013-01-22 07:54:00,47.0,34.2,30.07,SW,230,4.4,6.9,61,0.00,CLR,,0.00,39.0,WeatherDisplay:10.37,2013-01-22 15:54:00,
2013-01-22 07:59:00,47.3,34.5,30.07,SW,224,3.8,5.0,61,0.00,CLR,,0.00,42.0,WeatherDisplay:10.37,2013-01-22 15:59:00,
2013-01-22 08:04:00,47.6,34.4,30.07,WSW,239,1.5,3.5,60,0.00,CLR,,0.00,63.0,WeatherDisplay:10.37,2013-01-22 16:04:00,
2013-01-22 08:09:00,47.8,34.2,30.07,WSW,239,0.0,1.1,59,0.00,CLR,,0.00,63.0,WeatherDisplay:10.37,2013-01-22 16:09:00,
2013-01-22 08:14:00,48.2,34.5,30.07,WSW,239,0.9,2.3,59,0.00,CLR,,0.00,97.0,WeatherDisplay:10.37,2013-01-22 16:14:00,
2013-01-22 08:19:00,48.7,35.0,30.08,WSW,240,0.4,2.3,59,0.00,CLR,,0.00,128.0,WeatherDisplay:10.37,2013-01-22 16:19:00,
2013-01-22 08:24:00,49.4,35.2,30.07,WSW,240,0.0,0.0,58,0.00,CLR,,0.00,102.0,WeatherDisplay:10.37,2013-01-22 16:24:00,
2013-01-22 08:29:00,50.0,35.8,30.08,WSW,240,0.0,0.0,58,0.00,CLR,,0.00,123.0,WeatherDisplay:10.37,2013-01-22 16:29:00,
2013-01-22 08:34:00,50.6,35.9,30.07,WSW,239,0.2,1.1,57,0.00,CLR,,0.00,149.0,WeatherDisplay:10.37,2013-01-22 16:34:00,
2013-01-22 08:39:00,51.2,36.0,30.08,WSW,249,2.5,3.5,56,0.00,CLR,,0.00,176.0,WeatherDisplay:10.37,2013-01-22 16:39:00,
2013-01-22 08:44:00,51.4,36.2,30.08,WSW,248,2.4,4.6,56,0.00,CLR,,0.00,144.0,WeatherDisplay:10.37,2013-01-22 16:44:00,
2013-01-22 08:49:00,51.3,36.1,30.08,WSW,248,1.0,2.0,56,0.00,CLR,,0.00,171.0,WeatherDisplay:10.37,2013-01-22 16:49:00,
2013-01-22 08:54:00,51.3,36.1,30.08,WSW,248,1.7,2.3,56,0.00,CLR,,0.00,167.0,WeatherDisplay:10.37,2013-01-22 16:54:00,
2013-01-22 08:59:00,51.3,36.1,30.08,WSW,248,1.7,2.3,56,0.00,CLR,,0.00,229.0,WeatherDisplay:10.37,2013-01-22 16:59:00,
2013-01-22 09:04:00,51.5,36.3,30.08,WSW,237,2.6,4.6,56,0.00,CLR,,0.00,265.0,WeatherDisplay:10.37,2013-01-22 17:04:00,
2013-01-22 09:09:00,51.9,36.7,30.08,WSW,237,1.8,2.3,56,0.00,CLR,,0.00,304.0,WeatherDisplay:10.37,2013-01-22 17:09:00,
2013-01-22 09:14:00,52.4,36.7,30.08,WSW,237,0.6,2.3,55,0.00,CLR,,0.00,330.0,WeatherDisplay:10.37,2013-01-22 17:14:00,
2013-01-22 09:19:00,53.3,37.5,30.08,WSW,237,1.3,3.5,55,0.00,CLR,,0.00,306.0,WeatherDisplay:10.37,2013-01-22 17:19:00,
2013-01-22 09:24:00,54.4,38.1,30.08,WSW,237,1.3,2.3,54,0.00,CLR,,0.00,283.0,WeatherDisplay:10.37,2013-01-22 17:24:00,
2013-01-22 09:29:00,55.2,37.9,30.07,WSW,238,0.7,1.1,52,0.00,CLR,,0.00,330.0,WeatherDisplay:10.37,2013-01-22 17:29:00,
2013-01-22 09:34:00,55.2,38.4,30.08,WSW,238,1.4,2.0,53,0.00,CLR,,0.00,345.0,WeatherDisplay:10.37,2013-01-22 17:34:00,
2013-01-22 09:39:00,55.2,38.8,30.08,WSW,237,1.1,2.3,54,0.00,CLR,,0.00,350.0,WeatherDisplay:10.37,2013-01-22 17:39:00,
2013-01-22 09:44:00,55.1,38.7,30.08,WSW,237,0.9,2.3,54,0.00,CLR,,0.00,388.0,WeatherDisplay:10.37,2013-01-22 17:44:00,
2013-01-22 09:49:00,55.2,38.4,30.08,WSW,237,0.0,0.0,53,0.00,CLR,,0.00,410.0,WeatherDisplay:10.37,2013-01-22 17:49:00,
2013-01-22 09:54:00,56.0,39.6,30.08,WSW,237,0.0,1.1,54,0.00,CLR,,0.00,415.0,WeatherDisplay:10.37,2013-01-22 17:54:00,
2013-01-22 09:59:00,57.3,40.3,30.08,NW,309,2.4,3.0,53,0.00,CLR,,0.00,420.0,WeatherDisplay:10.37,2013-01-22 17:59:00,
2013-01-22 10:04:00,58.3,40.2,30.08,NW,310,2.3,3.5,51,0.00,CLR,,0.00,439.0,WeatherDisplay:10.37,2013-01-22 18:04:00,
2013-01-22 10:09:00,58.9,40.8,30.08,NW,317,1.2,2.3,51,0.00,CLR,,0.00,436.0,WeatherDisplay:10.37,2013-01-22 18:09:00,
2013-01-22 10:14:00,59.1,40.5,30.08,NW,320,1.3,2.3,50,0.00,CLR,,0.00,473.0,WeatherDisplay:10.37,2013-01-22 18:14:00,
2013-01-22 10:19:00,59.0,40.9,30.08,NW,320,1.1,2.3,51,0.00,CLR,,0.00,450.0,WeatherDisplay:10.37,2013-01-22 18:19:00,
2013-01-22 10:24:00,59.6,40.9,30.08,NW,320,0.8,2.3,50,0.00,CLR,,0.00,475.0,WeatherDisplay:10.37,2013-01-22 18:24:00,
2013-01-22 10:29:00,59.8,41.1,30.08,NW,321,1.1,2.3,50,0.00,CLR,,0.00,462.0,WeatherDisplay:10.37,2013-01-22 18:29:00,
2013-01-22 10:34:00,60.3,41.6,30.08,NW,320,1.2,2.3,50,0.00,CLR,,0.00,489.0,WeatherDisplay:10.37,2013-01-22 18:34:00,
2013-01-22 10:39:00,60.7,41.4,30.08,NW,322,2.4,3.5,49,0.00,CLR,,0.00,531.0,WeatherDisplay:10.37,2013-01-22 18:39:00,
2013-01-22 10:44:00,61.3,41.4,30.08,NNW,328,1.9,3.5,48,0.00,CLR,,0.00,550.0,WeatherDisplay:10.37,2013-01-22 18:44:00,
2013-01-22 10:49:00,61.8,41.9,30.08,NNW,328,1.4,2.3,48,0.00,CLR,,0.00,550.0,WeatherDisplay:10.37,2013-01-22 18:49:00,
2013-01-22 10:54:00,62.2,41.7,30.08,NNW,328,1.3,3.5,47,0.00,CLR,,0.00,538.0,WeatherDisplay:10.37,2013-01-22 18:54:00,
2013-01-22 10:59:00,62.6,41.5,30.08,NNW,328,2.2,2.3,46,0.00,CLR,,0.00,543.0,WeatherDisplay:10.37,2013-01-22 18:59:00,
2013-01-22 11:04:00,63.1,42.0,30.08,NNW,330,2.5,3.5,46,0.00,CLR,,0.00,464.0,WeatherDisplay:10.37,2013-01-22 19:04:00,
2013-01-22 11:09:00,63.4,42.2,30.08,NNW,330,1.9,3.5,46,0.00,CLR,,0.00,475.0,WeatherDisplay:10.37,2013-01-22 19:09:00,
2013-01-22 11:14:00,63.3,41.6,30.08,NNW,330,0.7,2.3,45,0.00,CLR,,0.00,512.0,WeatherDisplay:10.37,2013-01-22 19:14:00,
2013-01-22 11:19:00,63.2,41.5,30.08,NNE,18,0.6,4.6,45,0.00,CLR,,0.00,520.0,WeatherDisplay:10.37,2013-01-22 19:19:00,
2013-01-22 11:24:00,63.2,42.1,30.08,North,4,1.9,4.6,46,0.00,CLR,,0.00,459.0,WeatherDisplay:10.37,2013-01-22 19:24:00,
2013-01-22 11:29:00,63.2,41.5,30.08,NNW,332,1.2,3.5,45,0.00,CLR,,0.00,452.0,WeatherDisplay:10.37,2013-01-22 19:29:00,
2013-01-22 11:34:00,62.8,41.7,30.08,NW,314,1.6,3.0,46,0.00,CLR,,0.00,517.0,WeatherDisplay:10.37,2013-01-22 19:34:00,
2013-01-22 11:39:00,62.8,42.3,30.07,NW,306,3.4,5.0,47,0.00,CLR,,0.00,575.0,WeatherDisplay:10.37,2013-01-22 19:39:00,
2013-01-22 11:44:00,62.9,42.4,30.07,NW,318,2.9,4.6,47,0.00,CLR,,0.00,589.0,WeatherDisplay:10.37,2013-01-22 19:44:00,
2013-01-22 11:49:00,63.1,42.0,30.07,WNW,292,2.6,3.5,46,0.00,CLR,,0.00,568.0,WeatherDisplay:10.37,2013-01-22 19:49:00,
2013-01-22 11:54:00,63.4,41.7,30.06,WNW,303,3.0,5.8,45,0.00,CLR,,0.00,564.0,WeatherDisplay:10.37,2013-01-22 19:54:00,
2013-01-22 11:59:00,63.5,42.3,30.06,WNW,295,2.5,5.8,46,0.00,CLR,,0.00,606.0,WeatherDisplay:10.37,2013-01-22 19:59:00,
2013-01-22 12:04:00,64.1,42.3,30.06,NW,322,3.2,4.6,45,0.00,CLR,,0.00,575.0,WeatherDisplay:10.37,2013-01-22 20:04:00,
2013-01-22 12:09:00,64.4,41.4,30.06,NW,317,2.6,5.8,43,0.00,CLR,,0.00,540.0,WeatherDisplay:10.37,2013-01-22 20:09:00,
2013-01-22 12:14:00,64.7,41.7,30.06,NNW,333,2.3,3.5,43,0.00,CLR,,0.00,587.0,WeatherDisplay:10.37,2013-01-22 20:14:00,
2013-01-22 12:19:00,65.0,41.9,30.06,NNW,340,2.4,5.0,43,0.00,CLR,,0.00,584.0,WeatherDisplay:10.37,2013-01-22 20:19:00,
2013-01-22 12:24:00,65.3,41.6,30.05,NNW,328,3.5,4.6,42,0.00,CLR,,0.00,585.0,WeatherDisplay:10.37,2013-01-22 20:24:00,
2013-01-22 12:29:00,65.5,41.2,30.05,NNW,338,3.5,5.0,41,0.00,CLR,,0.00,582.0,WeatherDisplay:10.37,2013-01-22 20:29:00,
2013-01-22 12:34:00,65.8,40.8,30.05,NW,309,3.7,3.7,40,0.00,CLR,,0.00,589.0,WeatherDisplay:10.37,2013-01-22 20:34:00,
2013-01-22 12:39:00,65.9,40.9,30.05,NNW,328,2.0,3.5,40,0.00,CLR,,0.00,585.0,WeatherDisplay:10.37,2013-01-22 20:39:00,
2013-01-22 12:44:00,66.2,41.8,30.04,NW,320,2.1,3.0,41,0.00,CLR,,0.00,585.0,WeatherDisplay:10.37,2013-01-22 20:44:00,
2013-01-22 12:49:00,66.5,40.8,30.04,NNW,336,2.8,3.5,39,0.00,CLR,,0.00,584.0,WeatherDisplay:10.37,2013-01-22 20:49:00,
2013-01-22 12:54:00,66.4,40.7,30.04,NNW,330,1.1,2.3,39,0.00,CLR,,0.00,401.0,WeatherDisplay:10.37,2013-01-22 20:54:00,
2013-01-22 12:59:00,66.2,40.5,30.03,NW,310,1.3,4.6,39,0.00,CLR,,0.00,445.0,WeatherDisplay:10.37,2013-01-22 20:59:00,
2013-01-22 13:04:00,66.0,40.3,30.03,WNW,299,4.5,5.0,39,0.00,CLR,,0.00,501.0,WeatherDisplay:10.37,2013-01-22 21:04:00,
2013-01-22 13:09:00,65.5,39.2,30.03,WNW,301,2.8,4.6,38,0.00,CLR,,0.00,274.0,WeatherDisplay:10.37,2013-01-22 21:09:00,
2013-01-22 13:14:00,65.1,39.5,30.03,NW,316,2.0,3.5,39,0.00,CLR,,0.00,258.0,WeatherDisplay:10.37,2013-01-22 21:14:00,
2013-01-22 13:19:00,64.8,39.2,30.03,NW,318,1.1,2.0,39,0.00,CLR,,0.00,338.0,WeatherDisplay:10.37,2013-01-22 21:19:00,
2013-01-22 13:24:00,64.6,40.4,30.03,WNW,295,0.7,3.5,41,0.00,CLR,,0.00,466.0,WeatherDisplay:10.37,2013-01-22 21:24:00,
2013-01-22 13:29:00,64.7,39.8,30.03,WNW,297,1.4,2.3,40,0.00,CLR,,0.00,425.0,WeatherDisplay:10.37,2013-01-22 21:29:00,
2013-01-22 13:31:00,64.7,40.4,30.02,WNW,298,1.8,3.5,41,0.00,CLR,,0.00,541.0,WeatherDisplay:10.37,2013-01-22 21:31:00,
2013-01-22 13:36:00,64.7,39.8,30.02,WNW,299,0.6,2.3,40,0.00,CLR,,0.00,501.0,WeatherDisplay:10.37,2013-01-22 21:36:00,
2013-01-22 13:41:00,65.0,40.1,30.02,NW,310,0.3,2.3,40,0.00,CLR,,0.00,464.0,WeatherDisplay:10.37,2013-01-22 21:41:00,
2013-01-22 13:46:00,65.4,41.1,30.02,NW,310,1.6,2.3,41,0.00,CLR,,0.00,524.0,WeatherDisplay:10.37,2013-01-22 21:46:00,
2013-01-22 13:51:00,65.4,40.4,30.02,NW,310,1.0,2.3,40,0.00,CLR,,0.00,297.0,WeatherDisplay:10.37,2013-01-22 21:51:00,
2013-01-22 13:56:00,65.7,41.3,30.02,NW,309,0.3,3.5,41,0.00,CLR,,0.00,411.0,WeatherDisplay:10.37,2013-01-22 21:56:00,
2013-01-22 14:01:00,65.6,40.6,30.02,NW,311,0.1,2.3,40,0.00,CLR,,0.00,264.0,WeatherDisplay:10.37,2013-01-22 22:01:00,
2013-01-22 14:07:00,65.2,40.9,30.02,NW,314,2.2,3.5,41,0.00,CLR,,0.00,272.0,WeatherDisplay:10.37,2013-01-22 22:07:00,
2013-01-22 14:12:00,64.8,41.2,30.01,North,358,1.0,1.1,42,0.00,CLR,,0.00,320.0,WeatherDisplay:10.37,2013-01-22 22:12:00,
2013-01-22 14:17:00,64.7,41.1,30.02,North,1,2.0,3.5,42,0.00,CLR,,0.00,269.0,WeatherDisplay:10.37,2013-01-22 22:17:00,
2013-01-22 14:22:00,64.6,41.0,30.02,North,1,0.5,1.1,42,0.00,CLR,,0.00,244.0,WeatherDisplay:10.37,2013-01-22 22:22:00,
2013-01-22 14:27:00,64.5,40.9,30.02,North,1,3.0,3.5,42,0.00,CLR,,0.00,220.0,WeatherDisplay:10.37,2013-01-22 22:27:00,
2013-01-22 14:32:00,64.2,40.6,30.02,North,1,1.7,2.3,42,0.00,CLR,,0.00,206.0,WeatherDisplay:10.37,2013-01-22 22:32:00,
2013-01-22 14:37:00,63.9,41.5,30.02,North,1,0.0,1.1,44,0.00,CLR,,0.00,190.0,WeatherDisplay:10.37,2013-01-22 22:37:00,
2013-01-22 14:42:00,63.6,41.3,30.01,North,4,1.4,2.3,44,0.00,CLR,,0.00,183.0,WeatherDisplay:10.37,2013-01-22 22:42:00,
2013-01-22 14:47:00,63.1,40.8,30.01,North,4,1.5,3.0,44,0.00,CLR,,0.00,186.0,WeatherDisplay:10.37,2013-01-22 22:47:00,
2013-01-22 14:52:00,62.5,40.9,30.01,North,6,1.7,3.5,45,0.00,CLR,,0.00,237.0,WeatherDisplay:10.37,2013-01-22 22:52:00,
2013-01-22 14:57:00,62.2,41.2,30.01,North,5,0.1,2.3,46,0.00,CLR,,0.00,265.0,WeatherDisplay:10.37,2013-01-22 22:57:00,
2013-01-22 15:02:00,62.0,41.5,30.01,North,5,0.2,1.1,47,0.00,CLR,,0.00,244.0,WeatherDisplay:10.37,2013-01-22 23:02:00,
2013-01-22 15:07:00,61.9,41.4,30.01,North,5,0.7,2.0,47,0.00,CLR,,0.00,179.0,WeatherDisplay:10.37,2013-01-22 23:07:00,
2013-01-22 15:12:00,61.7,41.3,30.01,North,6,1.5,2.3,47,0.00,CLR,,0.00,185.0,WeatherDisplay:10.37,2013-01-22 23:12:00,
2013-01-22 15:17:00,61.5,41.6,30.01,North,5,2.3,3.5,48,0.00,CLR,,0.00,165.0,WeatherDisplay:10.37,2013-01-22 23:17:00,
2013-01-22 15:22:00,61.1,41.2,30.01,North,5,1.1,3.5,48,0.00,CLR,,0.00,132.0,WeatherDisplay:10.37,2013-01-22 23:22:00,
2013-01-22 15:28:00,61.0,42.2,30.01,North,6,0.8,1.1,50,0.00,CLR,,0.00,109.0,WeatherDisplay:10.37,2013-01-22 23:28:00,
2013-01-22 15:33:00,60.8,41.5,30.01,North,5,2.1,3.5,49,0.00,CLR,,0.00,98.0,WeatherDisplay:10.37,2013-01-22 23:33:00,
2013-01-22 15:38:00,60.5,41.8,30.01,North,5,0.0,1.1,50,0.00,CLR,,0.00,90.0,WeatherDisplay:10.37,2013-01-22 23:38:00,
2013-01-22 15:43:00,60.3,42.6,30.01,North,5,0.0,0.0,52,0.00,CLR,,0.00,76.0,WeatherDisplay:10.37,2013-01-22 23:43:00,
2013-01-22 15:48:00,60.0,41.8,30.00,North,5,0.0,0.0,51,0.00,CLR,,0.00,77.0,WeatherDisplay:10.37,2013-01-22 23:48:00,
2013-01-22 15:53:00,59.8,42.6,30.01,North,4,0.0,1.1,53,0.00,CLR,,0.00,88.0,WeatherDisplay:10.37,2013-01-22 23:53:00,
2013-01-22 15:58:00,59.7,42.5,30.00,North,5,0.0,0.0,53,0.00,CLR,,0.00,105.0,WeatherDisplay:10.37,2013-01-22 23:58:00,
2013-01-22 16:03:00,59.5,42.3,30.00,North,5,0.1,1.1,53,0.00,CLR,,0.00,118.0,WeatherDisplay:10.37,2013-01-23 00:03:00,
2013-01-22 16:08:00,59.4,41.3,30.00,North,5,0.1,1.1,51,0.00,CLR,,0.00,113.0,WeatherDisplay:10.37,2013-01-23 00:08:00,
2013-01-22 16:13:00,59.2,41.6,30.00,North,5,0.1,1.1,52,0.00,CLR,,0.00,105.0,WeatherDisplay:10.37,2013-01-23 00:13:00,
2013-01-22 16:18:00,59.1,42.0,30.01,North,5,0.7,1.1,53,0.00,CLR,,0.00,88.0,WeatherDisplay:10.37,2013-01-23 00:18:00,
2013-01-22 16:23:00,58.9,42.3,30.00,North,6,0.3,1.1,54,0.00,CLR,,0.00,67.0,WeatherDisplay:10.37,2013-01-23 00:23:00,
2013-01-22 16:28:00,58.8,42.7,30.00,North,6,2.0,3.5,55,0.00,CLR,,0.00,67.0,WeatherDisplay:10.37,2013-01-23 00:28:00,
2013-01-22 16:33:00,58.7,43.0,30.00,North,5,2.1,3.5,56,0.00,CLR,,0.00,49.0,WeatherDisplay:10.37,2013-01-23 00:33:00,
2013-01-22 16:38:00,58.4,41.8,30.00,North,6,2.8,3.5,54,0.00,CLR,,0.00,37.0,WeatherDisplay:10.37,2013-01-23 00:38:00,
2013-01-22 16:43:00,58.0,41.4,30.00,East,91,3.7,4.0,54,0.00,CLR,,0.00,26.0,WeatherDisplay:10.37,2013-01-23 00:43:00,
2013-01-22 16:48:00,57.6,42.0,30.00,ESE,116,4.0,4.6,56,0.00,CLR,,0.00,19.0,WeatherDisplay:10.37,2013-01-23 00:48:00,
2013-01-22 16:53:00,57.2,41.6,30.00,ESE,109,3.1,3.5,56,0.00,CLR,,0.00,21.0,WeatherDisplay:10.37,2013-01-23 00:53:00,
2013-01-22 16:58:00,56.9,41.4,30.01,SE,134,2.9,3.5,56,0.00,CLR,,0.00,21.0,WeatherDisplay:10.37,2013-01-23 00:58:00,
2013-01-22 17:03:00,56.6,40.6,30.00,SE,128,2.7,3.5,55,0.00,CLR,,0.00,18.0,WeatherDisplay:10.37,2013-01-23 01:03:00,
2013-01-22 17:08:00,56.4,40.4,30.00,SE,143,3.4,4.0,55,0.00,CLR,,0.00,12.0,WeatherDisplay:10.37,2013-01-23 01:08:00,
2013-01-22 17:13:00,56.2,39.3,30.00,SE,128,3.9,4.6,53,0.00,CLR,,0.00,7.0,WeatherDisplay:10.37,2013-01-23 01:13:00,
2013-01-22 17:18:00,56.3,39.4,30.00,SE,137,4.5,6.9,53,0.00,CLR,,0.00,5.0,WeatherDisplay:10.37,2013-01-23 01:18:00,
2013-01-22 17:23:00,56.3,39.4,30.00,SSE,161,4.3,6.0,53,0.00,CLR,,0.00,0.0,WeatherDisplay:10.37,2013-01-23 01:23:00,
2013-01-22 17:28:00,56.3,39.4,30.00,ESE,120,4.9,5.8,53,0.00,CLR,,0.00,0.0,WeatherDisplay:10.37,2013-01-23 01:28:00,
2013-01-22 17:33:00,56.5,39.6,30.00,SE,130,4.8,6.0,53,0.00,CLR,,0.00,0.0,WeatherDisplay:10.37,2013-01-23 01:33:00,
2013-01-22 17:38:00,56.8,39.4,30.00,SE,126,5.2,5.8,52,0.00,CLR,,0.00,0.0,WeatherDisplay:10.37,2013-01-23 01:38:00,
2013-01-22 17:43:00,56.8,38.9,30.00,ESE,121,3.0,5.8,51,0.00,CLR,,0.00,0.0,WeatherDisplay:10.37,2013-01-23 01:43:00,
2013-01-22 17:48:00,56.7,39.3,30.00,East,93,3.5,4.6,52,0.00,CLR,,0.00,0.0,WeatherDisplay:10.37,2013-01-23 01:48:00,
2013-01-22 17:53:00,56.5,38.6,29.99,ENE,69,4.2,4.6,51,0.00,CLR,,0.00,0.0,WeatherDisplay:10.37,2013-01-23 01:53:00,
2013-01-22 17:58:00,56.4,38.5,29.99,East,83,4.1,5.0,51,0.00,CLR,,0.00,0.0,WeatherDisplay:10.37,2013-01-23 01:58:00,
2013-01-22 18:03:00,56.4,38.0,29.99,ESE,113,2.5,4.6,50,0.00,CLR,,0.00,0.0,WeatherDisplay:10.37,2013-01-23 02:03:00,
2013-01-22 18:08:00,56.5,38.1,29.99,ENE,75,4.5,5.0,50,0.00,CLR,,0.00,0.0,WeatherDisplay:10.37,2013-01-23 02:08:00,
2013-01-22 18:13:00,56.4,38.0,29.99,NE,55,4.7,6.0,50,0.00,CLR,,0.00,0.0,WeatherDisplay:10.37,2013-01-23 02:13:00,
2013-01-22 18:18:00,56.3,38.4,30.00,East,93,1.0,3.5,51,0.00,CLR,,0.00,0.0,WeatherDisplay:10.37,2013-01-23 02:18:00,
2013-01-22 18:23:00,56.2,38.3,30.00,ESE,123,1.7,3.0,51,0.00,CLR,,0.00,0.0,WeatherDisplay:10.37,2013-01-23 02:23:00,
2013-01-22 18:28:00,56.0,38.1,30.00,SSE,152,0.1,2.3,51,0.00,CLR,,0.00,0.0,WeatherDisplay:10.37,2013-01-23 02:28:00,
2013-01-22 18:33:00,55.8,37.9,30.00,SSE,152,1.5,3.0,51,0.00,CLR,,0.00,0.0,WeatherDisplay:10.37,2013-01-23 02:33:00,
2013-01-22 18:38:00,55.8,37.9,30.00,SSE,152,2.7,3.5,51,0.00,CLR,,0.00,0.0,WeatherDisplay:10.37,2013-01-23 02:38:00,
2013-01-22 18:43:00,55.6,38.2,30.00,SE,134,5.2,5.2,52,0.00,CLR,,0.00,0.0,WeatherDisplay:10.37,2013-01-23 02:43:00,
2013-01-22 18:48:00,55.5,38.1,30.00,East,93,3.9,5.8,52,0.00,CLR,,0.00,0.0,WeatherDisplay:10.37,2013-01-23 02:48:00,
2013-01-22 18:53:00,55.7,37.3,30.00,SE,128,2.9,6.9,50,0.00,CLR,,0.00,0.0,WeatherDisplay:10.37,2013-01-23 02:53:00,
2013-01-22 18:58:00,55.9,37.5,30.00,ESE,105,2.4,3.5,50,0.00,CLR,,0.00,0.0,WeatherDisplay:10.37,2013-01-23 02:58:00,
2013-01-22 19:04:00,56.1,37.2,30.00,East,95,3.1,4.0,49,0.00,CLR,,0.00,0.0,WeatherDisplay:10.37,2013-01-23 03:04:00,
2013-01-22 19:09:00,56.4,36.9,30.00,East,99,2.4,3.5,48,0.00,CLR,,0.00,0.0,WeatherDisplay:10.37,2013-01-23 03:09:00,
2013-01-22 19:14:00,56.5,37.0,30.00,East,89,3.0,3.5,48,0.00,CLR,,0.00,0.0,WeatherDisplay:10.37,2013-01-23 03:14:00,
2013-01-22 19:19:00,56.4,37.5,30.00,ENE,68,2.8,3.5,49,0.00,CLR,,0.00,0.0,WeatherDisplay:10.37,2013-01-23 03:19:00,
2013-01-22 19:24:00,56.2,37.3,30.00,ENE,68,1.0,3.5,49,0.00,CLR,,0.00,0.0,WeatherDisplay:10.37,2013-01-23 03:24:00,
2013-01-22 19:29:00,56.1,37.7,29.99,ENE,70,1.9,3.5,50,0.00,CLR,,0.00,0.0,WeatherDisplay:10.37,2013-01-23 03:29:00,
2013-01-22 19:34:00,56.0,37.6,29.99,SE,130,3.4,4.0,50,0.00,CLR,,0.00,0.0,WeatherDisplay:10.37,2013-01-23 03:34:00,
2013-01-22 19:39:00,55.9,37.5,29.99,SE,145,4.2,5.0,50,0.00,CLR,,0.00,0.0,WeatherDisplay:10.37,2013-01-23 03:39:00,
2013-01-22 19:44:00,55.8,35.9,29.99,SE,142,4.1,4.6,47,0.00,CLR,,0.00,0.0,WeatherDisplay:10.37,2013-01-23 03:44:00,
2013-01-22 19:49:00,56.0,32.6,29.99,ESE,118,2.2,4.0,41,0.00,CLR,,0.00,0.0,WeatherDisplay:10.37,2013-01-23 03:49:00,
2013-01-22 19:54:00,56.6,32.5,30.00,ESE,112,1.8,3.5,40,0.00,CLR,,0.00,0.0,WeatherDisplay:10.37,2013-01-23 03:54:00,
2013-01-22 19:59:00,56.8,32.7,30.00,ESE,107,1.2,2.3,40,0.00,CLR,,0.00,0.0,WeatherDisplay:10.37,2013-01-23 03:59:00,
2013-01-22 20:04:00,56.9,32.8,30.00,ESE,107,0.6,1.1,40,0.00,CLR,,0.00,0.0,WeatherDisplay:10.37,2013-01-23 04:04:00,
2013-01-22 20:09:00,56.9,35.2,30.00,ESE,107,1.3,2.3,44,0.00,CLR,,0.00,0.0,WeatherDisplay:10.37,2013-01-23 04:09:00,
2013-01-22 20:14:00,56.6,37.1,30.01,NE,53,2.0,3.5,48,0.00,CLR,,0.00,0.0,WeatherDisplay:10.37,2013-01-23 04:14:00,
2013-01-22 20:19:00,56.3,36.8,30.01,NE,53,1.5,2.3,48,0.00,CLR,,0.00,0.0,WeatherDisplay:10.37,2013-01-23 04:19:00,
2013-01-22 20:24:00,55.9,37.5,30.01,ENE,75,1.6,2.3,50,0.00,CLR,,0.00,0.0,WeatherDisplay:10.37,2013-01-23 04:24:00,
2013-01-22 20:29:00,55.7,37.8,30.01,ENE,74,1.5,2.3,51,0.00,CLR,,0.00,0.0,WeatherDisplay:10.37,2013-01-23 04:29:00,
2013-01-22 20:34:00,55.4,38.1,30.01,ENE,75,0.0,0.0,52,0.00,CLR,,0.00,0.0,WeatherDisplay:10.37,2013-01-23 04:34:00,
2013-01-22 20:39:00,55.2,37.9,30.01,ENE,74,1.2,2.3,52,0.00,CLR,,0.00,0.0,WeatherDisplay:10.37,2013-01-23 04:39:00,
2013-01-22 20:44:00,55.1,36.8,30.01,ENE,75,0.5,2.0,50,0.00,CLR,,0.00,0.0,WeatherDisplay:10.37,2013-01-23 04:44:00,
2013-01-22 20:49:00,55.1,35.7,30.01,ENE,70,2.9,3.5,48,0.00,CLR,,0.00,0.0,WeatherDisplay:10.37,2013-01-23 04:49:00,
2013-01-22 20:54:00,55.3,36.5,30.01,East,93,2.9,4.0,49,0.00,CLR,,0.00,0.0,WeatherDisplay:10.37,2013-01-23 04:54:00,
2013-01-22 20:59:00,55.5,36.1,30.01,SE,125,4.4,5.0,48,0.00,CLR,,0.00,0.0,WeatherDisplay:10.37,2013-01-23 04:59:00,
2013-01-22 21:01:00,55.5,36.1,30.01,ESE,110,5.7,7.0,48,0.00,CLR,,0.00,0.0,WeatherDisplay:10.37,2013-01-23 05:01:00,
2013-01-22 21:03:00,55.6,36.7,30.01,SE,132,4.6,5.8,49,0.00,CLR,,0.00,0.0,WeatherDisplay:10.37,2013-01-23 05:03:00,
2013-01-22 21:08:00,55.8,36.4,30.01,SE,141,3.8,4.6,48,0.00,CLR,,0.00,0.0,WeatherDisplay:10.37,2013-01-23 05:08:00,
2013-01-22 21:13:00,55.8,34.8,30.02,SE,143,0.9,2.3,45,0.00,CLR,,0.00,0.0,WeatherDisplay:10.37,2013-01-23 05:13:00,
2013-01-22 21:18:00,55.9,31.3,30.01,SE,142,1.5,2.3,39,0.00,CLR,,0.00,0.0,WeatherDisplay:10.37,2013-01-23 05:18:00,
2013-01-22 21:23:00,55.9,33.1,30.01,SE,141,2.0,3.5,42,0.00,CLR,,0.00,0.0,WeatherDisplay:10.37,2013-01-23 05:23:00,
2013-01-22 21:28:00,55.8,32.4,30.01,SSE,156,1.8,2.3,41,0.00,CLR,,0.00,0.0,WeatherDisplay:10.37,2013-01-23 05:28:00,
2013-01-22 21:33:00,55.7,32.3,30.02,SSE,156,1.4,2.3,41,0.00,CLR,,0.00,0.0,WeatherDisplay:10.37,2013-01-23 05:33:00,
2013-01-22 21:38:00,55.7,32.3,30.02,SSE,156,1.0,2.3,41,0.00,CLR,,0.00,0.0,WeatherDisplay:10.37,2013-01-23 05:38:00,
2013-01-22 21:43:00,55.5,31.5,30.02,SSE,156,0.0,1.1,40,0.00,CLR,,0.00,0.0,WeatherDisplay:10.37,2013-01-23 05:43:00,
2013-01-22 21:48:00,55.5,30.9,30.02,SSE,156,0.2,1.1,39,0.00,CLR,,0.00,0.0,WeatherDisplay:10.37,2013-01-23 05:48:00,
2013-01-22 21:53:00,55.5,29.6,30.02,SSE,156,0.5,2.0,37,0.00,CLR,,0.00,0.0,WeatherDisplay:10.37,2013-01-23 05:53:00,
2013-01-22 21:58:00,55.7,29.8,30.02,WSW,257,3.3,5.0,37,0.00,CLR,,0.00,0.0,WeatherDisplay:10.37,2013-01-23 05:58:00,
2013-01-22 22:03:00,55.8,29.9,30.02,West,259,2.2,4.6,37,0.00,CLR,,0.00,0.0,WeatherDisplay:10.37,2013-01-23 06:03:00,
2013-01-22 22:08:00,55.9,30.0,30.02,West,268,3.8,4.6,37,0.00,CLR,,0.00,0.0,WeatherDisplay:10.37,2013-01-23 06:08:00,
2013-01-22 22:13:00,55.9,30.6,30.02,WNW,287,1.8,2.3,38,0.00,CLR,,0.00,0.0,WeatherDisplay:10.37,2013-01-23 06:13:00,
2013-01-22 22:18:00,55.9,30.0,30.02,WNW,287,1.1,1.1,37,0.00,CLR,,0.00,0.0,WeatherDisplay:10.37,2013-01-23 06:18:00,
2013-01-22 22:23:00,55.9,27.9,30.02,WNW,287,2.2,3.5,34,0.00,CLR,,0.00,0.0,WeatherDisplay:10.37,2013-01-23 06:23:00,
2013-01-22 22:28:00,56.0,33.2,30.03,ENE,61,4.6,5.0,42,0.00,CLR,,0.00,0.0,WeatherDisplay:10.37,2013-01-23 06:28:00,
2013-01-22 22:33:00,55.8,36.4,30.03,NE,43,3.8,4.6,48,0.00,CLR,,0.00,0.0,WeatherDisplay:10.37,2013-01-23 06:33:00,
2013-01-22 22:38:00,55.5,37.1,30.03,NE,37,0.4,1.0,50,0.00,CLR,,0.00,0.0,WeatherDisplay:10.37,2013-01-23 06:38:00,
2013-01-22 22:43:00,55.1,37.3,30.03,NE,37,0.0,0.0,51,0.00,CLR,,0.00,0.0,WeatherDisplay:10.37,2013-01-23 06:43:00,
2013-01-22 22:48:00,54.8,38.0,30.03,NE,38,0.8,3.5,53,0.00,CLR,,0.00,0.0,WeatherDisplay:10.37,2013-01-23 06:48:00,
2013-01-22 22:53:00,54.5,38.2,30.03,ENE,62,2.4,3.5,54,0.00,CLR,,0.00,0.0,WeatherDisplay:10.37,2013-01-23 06:53:00,
2013-01-22 22:58:00,54.2,38.4,30.04,ENE,71,3.1,4.0,55,0.00,CLR,,0.00,0.0,WeatherDisplay:10.37,2013-01-23 06:58:00,
2013-01-22 23:03:00,53.9,38.6,30.03,East,98,2.9,4.0,56,0.00,CLR,,0.00,0.0,WeatherDisplay:10.37,2013-01-23 07:03:00,
2013-01-22 23:08:00,53.7,37.9,30.03,ESE,121,5.4,6.9,55,0.00,CLR,,0.00,0.0,WeatherDisplay:10.37,2013-01-23 07:08:00,
2013-01-22 23:13:00,53.6,38.3,30.03,SE,140,4.4,6.9,56,0.00,CLR,,0.00,0.0,WeatherDisplay:10.37,2013-01-23 07:13:00,
2013-01-22 23:18:00,53.8,36.1,30.03,SE,140,2.7,3.5,51,0.00,CLR,,0.00,0.0,WeatherDisplay:10.37,2013-01-23 07:18:00,
2013-01-22 23:23:00,54.2,32.2,30.03,SSE,149,0.7,2.3,43,0.00,CLR,,0.00,0.0,WeatherDisplay:10.37,2013-01-23 07:23:00,
2013-01-22 23:28:00,55.0,30.5,30.03,ESE,106,1.6,3.5,39,0.00,CLR,,0.00,0.0,WeatherDisplay:10.37,2013-01-23 07:28:00,
2013-01-22 23:33:00,55.7,30.5,30.03,ENE,61,3.0,3.5,38,0.00,CLR,,0.00,0.0,WeatherDisplay:10.37,2013-01-23 07:33:00,
2013-01-22 23:38:00,56.1,33.9,30.03,ENE,62,1.3,1.3,43,0.00,CLR,,0.00,0.0,WeatherDisplay:10.37,2013-01-23 07:38:00,
2013-01-22 23:43:00,56.1,30.8,30.03,ENE,62,0.1,0.0,38,0.00,CLR,,0.00,0.0,WeatherDisplay:10.37,2013-01-23 07:43:00,
2013-01-22 23:48:00,56.1,30.8,30.02,ENE,62,0.2,0.0,38,0.00,CLR,,0.00,0.0,WeatherDisplay:10.37,2013-01-23 07:48:00,
2013-01-22 23:53:00,56.3,30.3,30.02,ENE,62,0.9,2.0,37,0.00,CLR,,0.00,0.0,WeatherDisplay:10.37,2013-01-23 07:53:00,
2013-01-22 23:58:00,56.7,30.0,30.02,ENE,77,1.2,2.3,36,0.00,CLR,,0.00,0.0,WeatherDisplay:10.37,2013-01-23 07:58:00,